Location: 22
(39.7117°N, 89.5929°W)
Time: 08:58:48
(UTC-05:00)

S-56A Canister/Altair - Pass Details

Date: 09 February 2023
Orbit: 638 x 2493 km, 38.9° (Epoch: 25 March)

Event Time Altitude Azimuth Distance (km) Brightness Sun altitude
Rises 12:27:44 0° 277° (W) 2,951 10.5 35.6°
Reaches altitude 10° 12:29:53 10° 275° (W) 2,094 9.9 35.6°
Maximum altitude 12:34:31 66° 193° (SSW) 836 9.0 35.5°
Drops below altitude 10° 12:40:40 10° 112° (ESE) 2,746 10.6 35.3°
Sets 12:43:50 0° 110° (ESE) 3,968 11.3 35.2°
